Location: Asheville, NC
(35.6000°N, 82.5500°W)
Time: 17:50:15
(UTC-04:00)

HO-68 - Pass Details

Date: 12 January 2018
Orbit: 1192 x 1205 km, 100.1° (Epoch: 16 July)

Event Time Altitude Azimuth Distance (km) Brightness Sun altitude
Rises 05:57:12 0° 37° (NE) 4,094 ? -20.5°
Reaches altitude 10° 06:01:30 10° 61° (ENE) 3,125 ? -19.6°
Maximum altitude 06:04:58 14° 91° (E) 2,824 ? -18.9°
Drops below altitude 10° 06:08:25 10° 121° (ESE) 3,119 ? -18.3°
Sets 06:12:39 0° 145° (SE) 4,079 ? -17.4°
